User: anonymous   Login
Location: Unspecified
(0.0000°N, 0.0000°E)
Time: 19:11:12
(UTC+00:00)
Language:

UNISAT 3 - Orbit

View from above orbital plane
View from above orbital plane
View from above satellite
View from above satellite

Ground track
Ground track

The orbit data is extracted from the following two-line orbital elements,

1 28373U 04025H   19340.57194015 +.00000038 +00000-0 +23400-4 0  9997
2 28373 098.4340 281.6529 0068916 355.5618 004.4954 14.45577124814277
Epoch (UTC): 06 December 2019 13:43:35
Eccentricity: 0.0068916
inclination: 98.4340°
perigee height: 691 km
apogee height: 789 km
right ascension of ascending node: 281.6529°
argument of perigee: 355.5618°
revolutions per day: 14.45577124
mean anomaly at epoch: 4.4954°
orbit number at epoch: 81427

The dashed part of the orbit path shows where the satellite is in the earth's shadow,  

DLR